Regional Weather Roundup
Issued by NWS

Home | Current Version | Previous Version | Graphics & Text | Print | Product List | Glossary On
Versions: 1 2 3 4 5 6 7 8 9 10 11 12 13 14 15 16 17 18 19 20 21 22 23 24 25 26 27 28 29 30 31 32 33 34 35 36 37 38 39 40 41 42 43 44 45 46 47 48 49 50
000
ASUS44 KMEG 301000
RWRTN
TENNESSEE HOURLY STATE WEATHER ROUNDUP
NATIONAL WEATHER SERVICE MEMPHIS TN
500 AM CDT SAT MAY 30 2015

TNZ002-004-019-021-049-052-054-088>092-301100-
WEST TENNESSEE

CITY           SKY/WX    TMP DP  RH WIND       PRES   REMARKS
MEMPHIS INTL   MOCLDY    73  67  81 S9        29.98R
NWS MEMPHIS      N/A     72 N/A N/A MISG        N/A
JACKSON        CLEAR     71  66  84 S6        30.00S
DYERSBURG      CLEAR    N/A N/A N/A S3        29.97S
PARIS          CLEAR     70  66  88 S9        30.01S
LEXINGTON      CLEAR     70  66  88 SE5       30.03R
$$

TNZ008-025-027-028-033-062-065-066-301100-
NORTH MIDDLE TENNESSEE

CITY           SKY/WX    TMP DP  RH WIND       PRES   REMARKS
NASHVILLE      CLEAR     68  64  87 S7        30.08S
CLARKSVILLE    PTCLDY    67  65  93 SE7       30.04S
COOKEVILLE     MOCLDY    70  64  83 S5        30.12R
CROSSVILLE     CLOUDY    69  61  75 S5        30.18R
$$

TNZ061-075-076-078-094-096-097-301100-
SOUTH MIDDLE TENNESSEE

CITY           SKY/WX    TMP DP  RH WIND       PRES   REMARKS
FAYETTEVILLE   CLEAR    N/A N/A N/A MISG      30.11S
TULLAHOMA      CLEAR     66  63  88 CALM      30.13S
WINCHESTER     PTCLDY    68  64  88 SE3       30.13R
MCMINNVILLE    MOCLDY    72  66  83 SW3       30.13R
COLUMBIA       MOCLDY    70  66  88 S3        30.06S
SHELBYVILLE    MOCLDY    70  66  88 SE5       30.11S
$$

TNZ017-018-042-046-047-301100-
NORTHEAST TENNESSEE

CITY           SKY/WX    TMP DP  RH WIND       PRES   REMARKS
TRI CITIES     PTCLDY    59  59 100 CALM      30.19
ELIZABETHTON   SUNNY     59  59 100 NE3       30.21R
$$

TNZ012-013-036-069-073-074-301100-
CENTRAL EAST TENNESSEE

CITY           SKY/WX    TMP DP  RH WIND       PRES   REMARKS
KNOXVILLE      PTCLDY    62  61  96 NE3       30.15R
OAK RIDGE      MOCLDY    68  65  90 CALM      30.16R
GATLINBURG     CLOUDY    61  61 100 CALM      30.16R
$$

TNZ083-085-099-301100-
SOUTHEAST TENNESSEE

CITY           SKY/WX    TMP DP  RH WIND       PRES   REMARKS
CHATTANOOGA    PTCLDY    69  67  93 CALM      30.14R
$$

SKY/WX REPORTED AS FAIR MEANS FEW OR NO CLOUDS BELOW
12 THOUSAND FEET.




USA.gov is the U.S. government's official web portal to all federal, state and local government web resources and services.